STARLINK-36713

Last updated on Tue Mar 10 2026 00:02:05 GMT+0000 (Coordinated Universal Time)

1 67701U 26025J 26068.26982466 .00357988 00000+0 22888-2 0 9990 2 67701 97.2838 179.8227 0001020 76.8811 283.2568 15.75319854 5883
UTC large
Height (km)
Speed (km/s)
/
Latitude / Longitude
Inclination (degrees)
Orbital Period (minutes)
Azimuth
Elevation
Range (km)
Doppler Factor

Next 0 passes for location: London (51.5072 / 0.1276)

Sorry there are no passes over London.